Zurück zum Katalog

FALCON HEAVY R/B

AktivMEO
NORAD 68894·ROCKET BODY·🇺🇸 United States

Gestartet Apr 29, 2026 von Cape Canaveral Space Force Station

Loading…

Nächste Überflüge (nächste 24 Stunden)

TLE

AktuellSource: Space-Track

Epoche: Sep 14, 2026, 09:55 UTC

1 68894U 26096B   26257.41328855 -.00000123  00000-0  00000-0 0  9993
2 68894   2.4467 277.3200 1479136 186.9555 170.2169  1.35919182  1872

Verfolge FALCON HEAVY R/B in Echtzeit mit AllMySat

Download on the App Store